This is the latest recevied weather packets stored in our database for station/object HB9FHL-13. If no packets are shown the sender has not sent any weather packets the latest 10 day(s).
| Time | Temp. | Humidity | Pressure | Rain* | Wind** | Luminosity | Snow |
|---|---|---|---|---|---|---|---|
| 1777983977 | 13.89° C | - | 1009.3 hPa | 0 mm | - | - | - |
| 1777983677 | 13.33° C | - | 1008.7 hPa | 0 mm | - | - | - |
| 1777983376 | 13.89° C | - | 1009.5 hPa | 0 mm | - | - | - |
| 1777983075 | 14.44° C | - | 1008.6 hPa | 0 mm | - | - | - |
| 1777982811 | 14.44° C | - | 1011.6 hPa | 0 mm | - | - | - |
| 1777982774 | 14.44° C | - | 1011.6 hPa | 0 mm | - | - | - |
| 1777982472 | 13.33° C | - | 1009.9 hPa | 0 mm | - | - | - |
| 1777982172 | 13.33° C | - | 1009.5 hPa | 0 mm | - | - | - |
| 1777981871 | 13.33° C | - | 1008.4 hPa | 0 mm | - | - | - |
| 1777981572 | 12.78° C | - | 1007.6 hPa | 0 mm | - | - | - |
| 1777981270 | 12.78° C | - | 1008.6 hPa | 0 mm | - | - | - |
| 1777980970 | 12.78° C | - | 1006.7 hPa | 0 mm | - | - | - |
| 1777980669 | 12.22° C | - | 1006.6 hPa | 0 mm | - | - | - |
| 1777980369 | 12.78° C | - | 1007.8 hPa | 0 mm | - | - | - |
| 1777980066 | 12.78° C | - | 1010 hPa | 0 mm | - | - | - |
| 1777979769 | 12.78° C | - | 1010 hPa | 0 mm | - | - | - |
| 1777979540 | 12.78° C | - | 1011.5 hPa | 0 mm | - | - | - |
| 1777979464 | 12.78° C | - | 1011.5 hPa | 0 mm | - | - | - |
| 1777979163 | 12.22° C | - | 1008 hPa | 0 mm | - | - | - |
| 1777978938 | 12.22° C | - | 1005.8 hPa | 0 mm | - | - | - |
| 1777978863 | 12.22° C | - | 1005.8 hPa | 0 mm | - | - | - |
| 1777978563 | 11.11° C | - | 1008.5 hPa | 0 mm | - | - | - |
| 1777978262 | 12.22° C | - | 1010.3 hPa | 0 mm | - | - | - |
| 1777977963 | 12.22° C | - | 1006.1 hPa | 0 mm | - | - | - |
| 1777977661 | 12.22° C | - | 1011 hPa | 0 mm | - | - | - |
* Rain since midnight (hover to see other rain measurements)
** Current wind speed in m/s (hover to see current wind gust speed)